This is the latest recevied weather packets stored in our database for station/object MB7UUE. If no packets are shown the sender has not sent any weather packets the latest 10 day(s).
| Time | Temp. | Humidity | Pressure | Rain* | Wind** | Luminosity | Snow |
|---|---|---|---|---|---|---|---|
| 1777498219 | 12.22° C | 59% | 1023.8 hPa | 0 mm | - | - | - |
| 1777497079 | 12.22° C | 58% | 1023.8 hPa | 0 mm | - | - | - |
| 1777495939 | 12.22° C | 56% | 1023.7 hPa | 0 mm | - | - | - |
| 1777494799 | 12.78° C | 53% | 1023.6 hPa | 0 mm | - | - | - |
| 1777493660 | 12.78° C | 47% | 1023.4 hPa | 0 mm | - | - | - |
| 1777492520 | 12.78° C | 47% | 1023.4 hPa | 0 mm | - | - | - |
| 1777491379 | 13.33° C | 46% | 1023.3 hPa | 0 mm | - | - | - |
| 1777490239 | 13.33° C | 44% | 1023.2 hPa | 0 mm | - | - | - |
| 1777489099 | 13.89° C | 43% | 1023 hPa | 0 mm | - | - | - |
| 1777487959 | 13.89° C | 43% | 1022.9 hPa | 0 mm | - | - | - |
| 1777486819 | 14.44° C | 43% | 1022.8 hPa | 0 mm | - | - | - |
| 1777485680 | 14.44° C | 41% | 1023 hPa | 0 mm | - | - | - |
| 1777484540 | 15° C | 41% | 1023.2 hPa | 0 mm | - | - | - |
| 1777483400 | 15° C | 41% | 1023.4 hPa | 0 mm | - | - | - |
| 1777482259 | 15° C | 41% | 1023.7 hPa | 0 mm | - | - | - |
| 1777481120 | 15.56° C | 39% | 1023.8 hPa | 0 mm | - | - | - |
| 1777479980 | 15.56° C | 40% | 1023.7 hPa | 0 mm | - | - | - |
| 1777478839 | 15.56° C | 41% | 1023.9 hPa | 0 mm | - | - | - |
| 1777477700 | 15.56° C | 42% | 1023.8 hPa | 0 mm | - | - | - |
| 1777476559 | 15.56° C | 40% | 1024 hPa | 0 mm | - | - | - |
| 1777475420 | 15° C | 42% | 1024.2 hPa | 0 mm | - | - | - |
| 1777474280 | 15° C | 42% | 1024.2 hPa | 0 mm | - | - | - |
| 1777473139 | 15° C | 39% | 1024.3 hPa | 0 mm | - | - | - |
| 1777471999 | 15.56° C | 39% | 1024.4 hPa | 0 mm | - | - | - |
| 1777470859 | 15.56° C | 39% | 1024.4 hPa | 0 mm | - | - | - |
* Rain latest hour (hover to see other rain measurements)
** Current wind speed in m/s (hover to see current wind gust speed)